Dewpoint
55 55 54 54 54 54 54 53 50 46 46 48 50 49 49 47 48 46 46 47 47 47 46 45 45 46 47 48 50 51 51 52 53 55 57 58 57 57
54 54 53 53 52 53 53 53 52 51 47 51 50 48 47 46 45 44 44 46 45 44 44 43 43 44 45 46 48 49 49 50 52 54 56 58 57 57
52 52 51 52 51 51 52 52 51 51 48 48 46 46 46 45 43 42 42 42 43 43 43 40 42 42 43 43 44 46 47 48 49 52 53 56 58 58
49 50 50 49 50 50 50 50 50 50 49 46 44 42 43 43 41 40 39 37 39 40 39 38 37 41 41 41 42 43 44 45 46 48 50 52 56 59
46 46 47 48 48 48 48 48 49 47 48 46 42 41 41 39 38 38 37 35 32 41 38 37 36 36 38 38 36 37 40 42 44 45 47 49 50 54
44 44 44 45 46 47 47 47 47 46 46 45 42 40 40 39 38 36 34 35 31 30 33 32 32 34 35 33 32 33 34 37 40 42 43 45 47 48
43 43 44 44 43 45 45 46 45 45 44 42 41 40 38 37 36 36 35 33 32 32 30 29 29 28 33 31 30 32 32 33 35 38 40 41 42 43
42 42 42 42 42 44 44 44 45 43 42 41 40 39 38 37 35 34 32 31 31 32 31 31 25 26 25 29 32 31 31 33 33 35 36 37 38 38
43 42 42 42 43 42 43 42 42 41 41 41 39 39 38 36 35 33 32 34 34 30 30 29 25 24 25 23 32 32 33 35 35 36 35 36 36 36
43 42 42 40 41 42 40 38 36 33 34 36 38 37 36 36 35 35 34 33 29 26 27 27 23 23 26 28 32 34 33 33 34 35 36 38 38 38
40 40 40 40 41 41 37 34 32 31 31 30 32 35 35 37 35 34 33 32 27 24 25 24 23 24 25 30 33 33 32 32 34 36 35 35 34 34
39 39 41 40 40 41 36 35 32 31 30 31 33 34 34 34 35 33 34 31 30 26 24 27 23 24 26 28 31 31 34 34 35 33 33 33 31 31
38 37 38 40 40 41 38 34 34 32 30 29 28 29 31 31 28 27 30 33 30 29 26 30 28 27 29 27 27 28 30 30 29 30 29 26 30 29
36 36 36 39 39 40 39 35 29 28 28 26 24 22 26 30 28 29 28 29 30 31 28 31 30 29 28 26 26 25 26 28 28 28 29 26 29 27
36 37 38 37 39 38 39 36 30 27 26 24 23 26 28 30 29 28 28 29 29 29 30 27 29 26 27 27 25 25 26 27 29 29 29 28 28 28
38 36 36 36 38 38 36 35 30 27 25 25 24 25 28 28 27 28 27 27 27 27 29 27 26 26 25 26 27 27 28 27 27 28 28 28 27 26
36 32 33 33 34 33 33 33 31 28 26 25 25 24 23 25 26 28 28 27 26 26 25 27 27 27 26 25 24 27 27 26 27 26 25 24 26 27
35 31 28 26 27 29 30 31 31 31 28 28 28 26 23 25 25 27 27 26 25 25 25 26 25 23 24 26 28 25 24 23 26 27 25 21 23 27
35 33 30 26 25 26 27 31 32 31 30 30 29 28 27 26 25 25 26 25 25 25 25 26 25 22 21 20 25 28 23 24 25 24 25 25 21 25
37 33 32 31 31 30 27 28 31 31 31 31 31 30 28 27 26 26 25 24 25 24 25 26 24 24 21 20 21 24 28 22 23 23 24 26 28 30
36 35 34 33 33 32 30 29 30 30 30 30 31 30 29 29 27 26 26 26 26 26 25 25 25 27 22 20 17 20 23 28 27 22 22 25 23 24
35 35 34 34 34 33 33 32 30 30 29 29 29 30 29 29 27 26 26 26 25 26 25 24 25 23 20 17 16 17 22 25 27 28 28 27 25 16
35 35 35 34 33 33 33 32 30 29 29 29 29 29 29 28 27 27 26 26 25 24 24 23 23 22 20 19 18 17 18 20 23 23 25 28 28 28
Lifted_Index
3 3 4 5 6 6 6 6 5 5 5 5 4 5 6 7 7 6 6 6 6 6 6 6 7 7 8 9 9 9 8 7 6 4 2 1 1 1
3 4 5 6 6 6 6 6 6 6 6 5 5 5 6 6 6 6 6 6 6 7 7 7 7 7 8 9 9 9 8 8 6 4 2 1 1 1
4 5 7 7 6 6 6 7 7 7 6 6 6 6 6 6 6 6 6 6 7 7 7 7 7 8 9 9 10 9 9 8 7 5 3 2 0 0
6 6 7 7 6 6 7 7 7 7 7 7 7 7 7 7 7 7 7 7 7 7 7 7 7 8 9 10 10 10 9 8 7 5 4 2 0 -0
7 7 7 6 6 7 7 7 8 8 8 8 8 8 8 8 7 7 7 7 8 8 8 8 8 9 10 10 11 11 10 9 7 6 4 3 1 1
7 7 7 7 7 7 7 8 8 8 8 9 9 9 9 9 8 8 8 8 8 8 8 9 9 10 10 11 11 12 12 11 9 7 5 4 3 2
7 7 7 7 7 8 8 8 8 9 9 9 9 9 9 9 8 8 8 8 8 9 9 9 10 10 11 12 13 14 14 13 11 9 7 5 4 4
6 6 7 7 8 8 9 9 9 9 9 9 9 9 9 9 9 8 8 8 8 9 9 10 10 10 12 13 15 16 15 15 14 12 9 7 6 6
6 6 6 7 8 9 9 10 10 10 10 10 9 9 9 9 9 9 9 9 9 10 10 11 11 12 13 15 16 16 16 16 15 14 12 11 9 9
6 6 6 7 8 9 9 9 10 10 10 10 10 10 10 10 10 10 10 10 11 11 12 12 13 14 15 16 16 16 16 16 16 16 15 14 13 13
6 6 6 7 8 9 9 9 9 10 10 10 11 12 12 12 12 12 11 12 12 13 13 14 15 15 15 16 15 15 16 16 16 16 16 16 16 16
6 6 7 8 9 10 10 9 9 10 10 11 12 14 15 15 14 14 13 13 13 14 15 15 15 15 14 14 15 16 16 16 16 16 16 16 16 16
5 6 7 8 10 10 11 10 10 11 12 13 14 15 16 16 16 15 15 15 15 15 16 16 15 13 12 12 14 15 16 16 16 16 16 16 16 16
5 6 7 9 10 11 11 11 12 13 14 14 15 15 16 16 17 17 17 17 17 17 17 17 15 13 12 12 13 14 15 16 16 16 16 16 16 16
5 6 8 9 10 10 11 13 14 15 15 15 15 15 16 16 17 18 18 18 17 17 18 18 16 15 14 13 13 14 15 15 16 16 16 16 16 16
6 6 8 8 9 10 12 14 15 15 15 14 14 15 16 16 17 17 17 16 15 15 16 17 17 17 16 15 14 14 14 15 15 16 16 16 16 16
6 6 6 7 7 8 10 13 15 15 15 15 15 15 15 15 16 16 16 14 12 11 13 15 17 17 16 16 15 15 15 15 15 16 15 15 15 16
6 5 5 5 6 6 8 11 13 15 15 15 15 15 15 15 15 15 15 13 10 10 11 13 15 15 14 15 15 15 15 15 15 15 15 14 14 15
6 5 5 5 6 7 7 9 12 15 15 15 15 15 15 15 15 15 14 12 10 10 11 12 13 12 12 12 14 15 16 15 15 15 14 14 14 15
7 6 6 6 7 7 8 10 12 15 15 15 15 15 15 15 14 14 13 12 10 10 11 12 12 12 12 11 12 15 17 17 16 15 14 14 14 15
7 7 7 7 8 8 9 10 12 14 15 15 15 15 15 15 14 14 13 12 11 10 11 12 14 14 13 12 11 13 16 18 18 17 15 14 14 14
7 7 8 8 8 9 9 10 11 13 15 15 15 15 15 15 15 14 13 12 11 11 12 13 15 15 14 12 12 13 15 17 18 17 16 16 15 14
8 8 8 8 9 9 9 10 10 12 15 15 15 15 16 15 15 15 14 13 12 11 13 14 15 15 13 12 12 13 14 16 17 17 17 17 16 15